Year,Month,Day,Hour,Minute,Value (Times are PST for temperature in C)
2015,04,06,00,00,4.10
2015,04,06,00,01,4.20
2015,04,06,00,02,4.20
2015,04,06,00,03,4.20
2015,04,06,00,04,4.10
2015,04,06,00,05,4.10
2015,04,06,00,06,4.10
2015,04,06,00,07,4.10
2015,04,06,00,08,4.10
2015,04,06,00,09,4.00
2015,04,06,00,10,4.00
2015,04,06,00,11,4.10
2015,04,06,00,12,4.10
2015,04,06,00,13,4.10
2015,04,06,00,14,4.00
2015,04,06,00,15,4.00
2015,04,06,00,16,4.00
2015,04,06,00,17,4.00
2015,04,06,00,18,4.00
2015,04,06,00,19,4.00
2015,04,06,00,20,4.00
2015,04,06,00,21,4.00
2015,04,06,00,22,4.00
2015,04,06,00,23,4.00
2015,04,06,00,24,4.00
2015,04,06,00,25,4.00
2015,04,06,00,26,4.00
2015,04,06,00,27,4.00
2015,04,06,00,28,4.00
2015,04,06,00,29,4.00
2015,04,06,00,30,4.00
2015,04,06,00,31,4.00
2015,04,06,00,32,3.90
2015,04,06,00,33,3.90
2015,04,06,00,34,3.90
2015,04,06,00,35,3.80
2015,04,06,00,36,3.80
2015,04,06,00,37,3.70
2015,04,06,00,38,3.70
2015,04,06,00,39,3.70
2015,04,06,00,40,3.70
2015,04,06,00,41,3.70
2015,04,06,00,42,3.70
2015,04,06,00,43,3.70
2015,04,06,00,44,3.70
2015,04,06,00,45,3.70
2015,04,06,00,46,3.70
2015,04,06,00,47,3.70
2015,04,06,00,48,3.70
2015,04,06,00,49,3.70
2015,04,06,00,50,3.70
2015,04,06,00,51,3.70
2015,04,06,00,52,3.70
2015,04,06,00,53,3.70
2015,04,06,00,54,3.70
2015,04,06,00,55,3.70
2015,04,06,00,56,3.60
2015,04,06,00,57,3.60
2015,04,06,00,58,3.60
2015,04,06,00,59,3.60
2015,04,06,01,00,3.60
2015,04,06,01,01,3.60
2015,04,06,01,02,3.60
2015,04,06,01,03,3.60
2015,04,06,01,04,3.60
2015,04,06,01,05,3.60
2015,04,06,01,06,3.50
2015,04,06,01,07,3.50
2015,04,06,01,08,3.50
2015,04,06,01,09,3.50
2015,04,06,01,10,3.40
2015,04,06,01,11,3.40
2015,04,06,01,12,3.30
2015,04,06,01,13,3.30
2015,04,06,01,14,3.30
2015,04,06,01,15,3.30
2015,04,06,01,16,3.30
2015,04,06,01,17,3.30
2015,04,06,01,18,3.40
2015,04,06,01,19,3.40
2015,04,06,01,20,3.40
2015,04,06,01,21,3.40
2015,04,06,01,22,3.40
2015,04,06,01,23,3.40
2015,04,06,01,24,3.40
2015,04,06,01,25,3.40
2015,04,06,01,26,3.40
2015,04,06,01,27,3.40
2015,04,06,01,28,3.40
2015,04,06,01,29,3.40
2015,04,06,01,30,3.40
2015,04,06,01,31,3.30
2015,04,06,01,32,3.30
2015,04,06,01,33,3.30
2015,04,06,01,34,3.30
2015,04,06,01,35,3.30
2015,04,06,01,36,3.30
2015,04,06,01,37,3.20
2015,04,06,01,38,3.20
2015,04,06,01,39,3.20
2015,04,06,01,40,3.20
2015,04,06,01,41,3.10
2015,04,06,01,42,3.10
2015,04,06,01,43,3.10
2015,04,06,01,44,3.10
2015,04,06,01,45,3.10
2015,04,06,01,46,3.10
2015,04,06,01,47,3.10
2015,04,06,01,48,3.10
2015,04,06,01,49,3.10
2015,04,06,01,50,3.10
2015,04,06,01,51,3.10
2015,04,06,01,52,3.10
2015,04,06,01,53,3.10
2015,04,06,01,54,3.10
2015,04,06,01,55,3.10
2015,04,06,01,56,3.10
2015,04,06,01,57,3.10
2015,04,06,01,58,3.00
2015,04,06,01,59,3.00
2015,04,06,02,00,3.00
2015,04,06,02,01,3.00
2015,04,06,02,02,2.90
2015,04,06,02,03,2.90
2015,04,06,02,04,2.90
2015,04,06,02,05,2.90
2015,04,06,02,06,2.90
2015,04,06,02,07,2.80
2015,04,06,02,08,2.80
2015,04,06,02,09,2.80
2015,04,06,02,10,2.80
2015,04,06,02,11,2.80
2015,04,06,02,12,2.80
2015,04,06,02,13,2.80
2015,04,06,02,14,2.80
2015,04,06,02,15,2.80
2015,04,06,02,16,2.80
2015,04,06,02,17,2.80
2015,04,06,02,18,2.80
2015,04,06,02,19,2.80
2015,04,06,02,20,2.80
2015,04,06,02,21,2.70
2015,04,06,02,22,2.70
2015,04,06,02,23,2.70
2015,04,06,02,24,2.60
2015,04,06,02,25,2.60
2015,04,06,02,26,2.60
2015,04,06,02,27,2.60
2015,04,06,02,28,2.70
2015,04,06,02,29,2.70
2015,04,06,02,30,2.70
2015,04,06,02,31,2.70
2015,04,06,02,32,2.70
2015,04,06,02,33,2.80
2015,04,06,02,34,2.80
2015,04,06,02,35,2.80
2015,04,06,02,36,2.80
2015,04,06,02,37,2.80
2015,04,06,02,38,2.80
2015,04,06,02,39,2.70
2015,04,06,02,40,2.70
2015,04,06,02,41,2.70
2015,04,06,02,42,2.70
2015,04,06,02,43,2.70
2015,04,06,02,44,2.70
2015,04,06,02,45,2.70
2015,04,06,02,46,2.80
2015,04,06,02,47,2.80
2015,04,06,02,48,2.80
2015,04,06,02,49,2.80
2015,04,06,02,50,2.80
2015,04,06,02,51,2.80
2015,04,06,02,52,2.80
2015,04,06,02,53,2.80
2015,04,06,02,54,2.80
2015,04,06,02,55,2.80
2015,04,06,02,56,2.80
2015,04,06,02,57,2.80
2015,04,06,02,58,2.80
2015,04,06,02,59,2.80
2015,04,06,03,00,2.80
2015,04,06,03,01,2.80
2015,04,06,03,02,2.80
2015,04,06,03,03,2.80
2015,04,06,03,04,2.80
2015,04,06,03,05,2.80
2015,04,06,03,06,2.80
2015,04,06,03,07,2.80
2015,04,06,03,08,2.80
2015,04,06,03,09,2.80
2015,04,06,03,10,2.80
2015,04,06,03,11,2.80
2015,04,06,03,12,2.80
2015,04,06,03,13,2.80
2015,04,06,03,14,2.80
2015,04,06,03,15,2.80
2015,04,06,03,16,2.80
2015,04,06,03,17,2.80
2015,04,06,03,18,2.80
2015,04,06,03,19,2.80
2015,04,06,03,20,2.80
2015,04,06,03,21,2.80
2015,04,06,03,22,2.80
2015,04,06,03,23,2.80
2015,04,06,03,24,2.80
2015,04,06,03,25,2.80
2015,04,06,03,26,2.80
2015,04,06,03,27,2.80
2015,04,06,03,28,2.90
2015,04,06,03,29,2.90
2015,04,06,03,30,2.90
2015,04,06,03,31,2.90
2015,04,06,03,32,2.90
2015,04,06,03,33,2.90
2015,04,06,03,34,2.80
2015,04,06,03,35,2.80
2015,04,06,03,36,2.80
2015,04,06,03,37,2.80
2015,04,06,03,38,2.80
2015,04,06,03,39,2.80
2015,04,06,03,40,2.80
2015,04,06,03,41,2.70
2015,04,06,03,42,2.70
2015,04,06,03,43,2.70
2015,04,06,03,44,2.70
2015,04,06,03,45,2.60
2015,04,06,03,46,2.60
2015,04,06,03,47,2.60
2015,04,06,03,48,2.60
2015,04,06,03,49,2.60
2015,04,06,03,50,2.60
2015,04,06,03,51,2.60
2015,04,06,03,52,2.50
2015,04,06,03,53,2.50
2015,04,06,03,54,2.50
2015,04,06,03,55,2.50
2015,04,06,03,56,2.50
2015,04,06,03,57,2.40
2015,04,06,03,58,2.40
2015,04,06,03,59,2.40
2015,04,06,04,00,2.40
2015,04,06,04,01,2.40
2015,04,06,04,02,2.40
2015,04,06,04,03,2.40
2015,04,06,04,04,2.40
2015,04,06,04,05,2.40
2015,04,06,04,06,2.40
2015,04,06,04,07,2.40
2015,04,06,04,08,2.40
2015,04,06,04,09,2.40
2015,04,06,04,10,2.40
2015,04,06,04,11,2.40
2015,04,06,04,12,2.30
2015,04,06,04,13,2.30
2015,04,06,04,14,2.30
2015,04,06,04,15,2.30
2015,04,06,04,16,2.30
2015,04,06,04,17,2.30
2015,04,06,04,18,2.30
2015,04,06,04,19,2.30
2015,04,06,04,20,2.30
2015,04,06,04,21,2.20
2015,04,06,04,22,2.20
2015,04,06,04,23,2.20
2015,04,06,04,24,2.20
2015,04,06,04,25,2.20
2015,04,06,04,26,2.20
2015,04,06,04,27,2.20
2015,04,06,04,28,2.20
2015,04,06,04,29,2.20
2015,04,06,04,30,2.20
2015,04,06,04,31,2.20
2015,04,06,04,32,2.20
2015,04,06,04,33,2.20
2015,04,06,04,34,2.10
2015,04,06,04,35,2.10
2015,04,06,04,36,2.10
2015,04,06,04,37,2.10
2015,04,06,04,38,2.10
2015,04,06,04,39,2.10
2015,04,06,04,40,2.10
2015,04,06,04,41,2.10
2015,04,06,04,42,2.10
2015,04,06,04,43,2.10
2015,04,06,04,44,2.10
2015,04,06,04,45,2.10
2015,04,06,04,46,2.10
2015,04,06,04,47,2.10
2015,04,06,04,48,2.10
2015,04,06,04,49,2.00
2015,04,06,04,50,2.00
2015,04,06,04,51,2.00
2015,04,06,04,52,2.00
2015,04,06,04,53,1.90
2015,04,06,04,54,1.90
2015,04,06,04,55,1.90
2015,04,06,04,56,1.90
2015,04,06,04,57,1.90
2015,04,06,04,58,1.90
2015,04,06,04,59,1.90
2015,04,06,05,00,1.90
2015,04,06,05,01,1.90
2015,04,06,05,02,1.90
2015,04,06,05,03,1.90
2015,04,06,05,04,1.80
2015,04,06,05,05,1.80
2015,04,06,05,06,1.80
2015,04,06,05,07,1.80
2015,04,06,05,08,1.80
2015,04,06,05,09,1.80
2015,04,06,05,10,1.80
2015,04,06,05,11,1.80
2015,04,06,05,12,1.80
2015,04,06,05,13,1.80
2015,04,06,05,14,1.80
2015,04,06,05,15,1.80
2015,04,06,05,16,1.80
2015,04,06,05,17,1.80
2015,04,06,05,18,1.80
2015,04,06,05,19,1.80
2015,04,06,05,20,1.80
2015,04,06,05,21,1.80
2015,04,06,05,22,1.80
2015,04,06,05,23,1.80
2015,04,06,05,24,1.80
2015,04,06,05,25,1.80
2015,04,06,05,26,1.80
2015,04,06,05,27,1.80
2015,04,06,05,28,1.80
2015,04,06,05,29,1.90
2015,04,06,05,30,1.90
2015,04,06,05,31,1.90
2015,04,06,05,32,1.90
2015,04,06,05,33,1.90
2015,04,06,05,34,2.00
2015,04,06,05,35,2.00
2015,04,06,05,36,1.90
2015,04,06,05,37,1.90
2015,04,06,05,38,1.90
2015,04,06,05,39,1.90
2015,04,06,05,40,1.80
2015,04,06,05,41,1.80
2015,04,06,05,42,1.80
2015,04,06,05,43,1.80
2015,04,06,05,44,1.80
2015,04,06,05,45,1.80
2015,04,06,05,46,1.80
2015,04,06,05,47,1.80
2015,04,06,05,48,1.80
2015,04,06,05,49,1.80
2015,04,06,05,50,1.80
2015,04,06,05,51,1.80
2015,04,06,05,52,1.70
2015,04,06,05,53,1.70
2015,04,06,05,54,1.70
2015,04,06,05,55,1.60
2015,04,06,05,56,1.60
2015,04,06,05,57,1.60
2015,04,06,05,58,1.50
2015,04,06,05,59,1.50
2015,04,06,06,00,1.60
2015,04,06,06,01,1.60
2015,04,06,06,02,1.60
2015,04,06,06,03,1.60
2015,04,06,06,04,1.60
2015,04,06,06,05,1.60
2015,04,06,06,06,1.60
2015,04,06,06,07,1.60
2015,04,06,06,08,1.50
2015,04,06,06,09,1.50
2015,04,06,06,10,1.50
2015,04,06,06,11,1.50
2015,04,06,06,12,1.50
2015,04,06,06,13,1.50
2015,04,06,06,14,1.60
2015,04,06,06,15,1.60
2015,04,06,06,16,1.60
2015,04,06,06,17,1.60
2015,04,06,06,18,1.60
2015,04,06,06,19,1.60
2015,04,06,06,20,1.60
2015,04,06,06,21,1.60
2015,04,06,06,22,1.70
2015,04,06,06,23,1.70
2015,04,06,06,24,1.70
2015,04,06,06,25,1.70
2015,04,06,06,26,1.70
2015,04,06,06,27,1.70
2015,04,06,06,28,1.70
2015,04,06,06,29,1.70
2015,04,06,06,30,1.70
2015,04,06,06,31,1.70
2015,04,06,06,32,1.70
2015,04,06,06,33,1.70
2015,04,06,06,34,1.70
2015,04,06,06,35,1.70
2015,04,06,06,36,1.70
2015,04,06,06,37,1.70
2015,04,06,06,38,1.70
2015,04,06,06,39,1.70
2015,04,06,06,40,1.70
2015,04,06,06,41,1.60
2015,04,06,06,42,1.60
2015,04,06,06,43,1.60
2015,04,06,06,44,1.60
2015,04,06,06,45,1.60
2015,04,06,06,46,1.50
2015,04,06,06,47,1.50
2015,04,06,06,48,1.50
2015,04,06,06,49,1.50
2015,04,06,06,50,1.50
2015,04,06,06,51,1.50
2015,04,06,06,52,1.50
2015,04,06,06,53,1.50
2015,04,06,06,54,1.40
2015,04,06,06,55,1.40
2015,04,06,06,56,1.40
2015,04,06,06,57,1.40
2015,04,06,06,58,1.50
2015,04,06,06,59,1.50
2015,04,06,07,00,1.60
2015,04,06,07,01,1.60
2015,04,06,07,02,1.60
2015,04,06,07,03,1.60
2015,04,06,07,04,1.60
2015,04,06,07,05,1.60
2015,04,06,07,06,1.60
2015,04,06,07,07,1.50
2015,04,06,07,08,1.50
2015,04,06,07,09,1.50
2015,04,06,07,10,1.50
2015,04,06,07,11,1.50
2015,04,06,07,12,1.50
2015,04,06,07,13,1.50
2015,04,06,07,14,1.50
2015,04,06,07,15,1.50
2015,04,06,07,16,1.50
2015,04,06,07,17,1.50
2015,04,06,07,18,1.60
2015,04,06,07,19,1.50
2015,04,06,07,20,1.50
2015,04,06,07,21,1.50
2015,04,06,07,22,1.50
2015,04,06,07,23,1.50
2015,04,06,07,24,1.50
2015,04,06,07,25,1.50
2015,04,06,07,26,1.50
2015,04,06,07,27,1.50
2015,04,06,07,28,1.50
2015,04,06,07,29,1.50
2015,04,06,07,30,1.40
2015,04,06,07,31,1.40
2015,04,06,07,32,1.40
2015,04,06,07,33,1.40
2015,04,06,07,34,1.40
2015,04,06,07,35,1.40
2015,04,06,07,36,1.40
2015,04,06,07,37,1.40
2015,04,06,07,38,1.40
2015,04,06,07,39,1.40
2015,04,06,07,40,1.40
2015,04,06,07,41,1.40
2015,04,06,07,42,1.50
2015,04,06,07,43,1.50
2015,04,06,07,44,1.50
2015,04,06,07,45,1.50
2015,04,06,07,46,1.50
2015,04,06,07,47,1.50
2015,04,06,07,48,1.50
2015,04,06,07,49,1.50
2015,04,06,07,50,1.50
2015,04,06,07,51,1.50
2015,04,06,07,52,1.60
2015,04,06,07,53,1.60
2015,04,06,07,54,1.60
2015,04,06,07,55,1.70
2015,04,06,07,56,1.70
2015,04,06,07,57,1.80
2015,04,06,07,58,1.80
2015,04,06,07,59,1.80
2015,04,06,08,00,1.90
2015,04,06,08,01,1.90
2015,04,06,08,02,1.90
2015,04,06,08,03,1.90
2015,04,06,08,04,1.90
2015,04,06,08,05,1.90
2015,04,06,08,06,1.90
2015,04,06,08,07,1.90
2015,04,06,08,08,1.90
2015,04,06,08,09,1.90
2015,04,06,08,10,1.90
2015,04,06,08,11,1.90
2015,04,06,08,12,1.90
2015,04,06,08,13,1.90
2015,04,06,08,14,1.80
2015,04,06,08,15,1.80
2015,04,06,08,16,1.80
2015,04,06,08,17,1.80
2015,04,06,08,18,1.80
2015,04,06,08,19,1.80
2015,04,06,08,20,1.80
2015,04,06,08,21,1.80
2015,04,06,08,22,1.90
2015,04,06,08,23,1.90
2015,04,06,08,24,1.90
2015,04,06,08,25,1.90
2015,04,06,08,26,1.90
2015,04,06,08,27,1.90
2015,04,06,08,28,1.90
2015,04,06,08,29,1.90
2015,04,06,08,30,1.90
2015,04,06,08,31,1.90
2015,04,06,08,32,1.90
2015,04,06,08,33,1.90
2015,04,06,08,34,1.90
2015,04,06,08,35,1.90
2015,04,06,08,36,1.90
2015,04,06,08,37,1.90
2015,04,06,08,38,1.90
2015,04,06,08,39,1.90
2015,04,06,08,40,1.90
2015,04,06,08,41,1.90
2015,04,06,08,42,1.90
2015,04,06,08,43,1.90
2015,04,06,08,44,1.90
2015,04,06,08,45,1.90
2015,04,06,08,46,1.90
2015,04,06,08,47,1.90
2015,04,06,08,48,1.90
2015,04,06,08,49,1.90
2015,04,06,08,50,1.90
2015,04,06,08,51,1.90
2015,04,06,08,52,1.90
2015,04,06,08,53,1.90
2015,04,06,08,54,2.00
2015,04,06,08,55,2.00
2015,04,06,08,56,2.00
2015,04,06,08,57,2.10
2015,04,06,08,58,2.10
2015,04,06,08,59,2.10
2015,04,06,09,00,2.10
2015,04,06,09,01,2.20
2015,04,06,09,02,2.20
2015,04,06,09,03,2.20
2015,04,06,09,04,2.20
2015,04,06,09,05,2.20
2015,04,06,09,06,2.20
2015,04,06,09,07,2.30
2015,04,06,09,08,2.30
2015,04,06,09,09,2.30
2015,04,06,09,10,2.30
2015,04,06,09,11,2.30
2015,04,06,09,12,2.40
2015,04,06,09,13,2.40
2015,04,06,09,14,2.40
2015,04,06,09,15,2.40
2015,04,06,09,16,2.40
2015,04,06,09,17,2.40
2015,04,06,09,18,2.40
2015,04,06,09,19,2.40
2015,04,06,09,20,2.40
2015,04,06,09,21,2.40
2015,04,06,09,22,2.40
2015,04,06,09,23,2.50
2015,04,06,09,24,2.50
2015,04,06,09,25,2.50
2015,04,06,09,26,2.50
2015,04,06,09,27,2.50
2015,04,06,09,28,2.60
2015,04,06,09,29,2.60
2015,04,06,09,30,2.60
2015,04,06,09,31,2.60
2015,04,06,09,32,2.70
2015,04,06,09,33,2.70
2015,04,06,09,34,2.70
2015,04,06,09,35,2.70
2015,04,06,09,36,2.70
2015,04,06,09,37,2.70
2015,04,06,09,38,2.80
2015,04,06,09,39,2.80
2015,04,06,09,40,2.80
2015,04,06,09,41,2.80
2015,04,06,09,42,2.80
2015,04,06,09,43,2.80
2015,04,06,09,44,2.80
2015,04,06,09,45,2.80
2015,04,06,09,46,2.80
2015,04,06,09,47,2.90
2015,04,06,09,48,2.90
2015,04,06,09,49,2.90
2015,04,06,09,50,2.90
2015,04,06,09,51,3.00
2015,04,06,09,52,3.00
2015,04,06,09,53,3.00
2015,04,06,09,54,3.10
2015,04,06,09,55,3.10
2015,04,06,09,56,3.10
2015,04,06,09,57,3.20
2015,04,06,09,58,3.20
2015,04,06,09,59,3.30
2015,04,06,10,00,3.30
2015,04,06,10,01,3.40
2015,04,06,10,02,3.40
2015,04,06,10,03,3.40
2015,04,06,10,04,3.50
2015,04,06,10,05,3.50
2015,04,06,10,06,3.60
2015,04,06,10,07,3.60
2015,04,06,10,08,3.60
2015,04,06,10,09,3.70
2015,04,06,10,10,3.70
2015,04,06,10,11,3.70
2015,04,06,10,12,3.80
2015,04,06,10,13,3.80
2015,04,06,10,14,3.80
2015,04,06,10,15,3.90
2015,04,06,10,16,4.00
2015,04,06,10,17,4.00
2015,04,06,10,18,4.10
2015,04,06,10,19,4.20
2015,04,06,10,20,4.30
2015,04,06,10,21,4.40
2015,04,06,10,22,4.50
2015,04,06,10,23,4.50
2015,04,06,10,24,4.60
2015,04,06,10,25,4.70
2015,04,06,10,26,4.80
2015,04,06,10,27,4.90
2015,04,06,10,28,5.00
2015,04,06,10,29,5.10
2015,04,06,10,30,5.20
2015,04,06,10,31,5.30
2015,04,06,10,32,5.30
2015,04,06,10,33,5.40
2015,04,06,10,34,5.50
2015,04,06,10,35,5.50
2015,04,06,10,36,5.60
2015,04,06,10,37,5.70
2015,04,06,10,38,5.80
2015,04,06,10,39,5.90
2015,04,06,10,40,5.90
2015,04,06,10,41,6.00
2015,04,06,10,42,6.00
2015,04,06,10,43,6.10
2015,04,06,10,44,6.10
2015,04,06,10,45,6.20
2015,04,06,10,46,6.30
2015,04,06,10,47,6.40
2015,04,06,10,48,6.50
2015,04,06,10,49,6.60
2015,04,06,10,50,6.70
2015,04,06,10,51,6.80
2015,04,06,10,52,6.80
2015,04,06,10,53,6.90
2015,04,06,10,54,7.00
2015,04,06,10,55,7.00
2015,04,06,10,56,7.10
2015,04,06,10,57,7.10
2015,04,06,10,58,7.20
2015,04,06,10,59,7.20
2015,04,06,11,00,7.30
2015,04,06,11,01,7.40
2015,04,06,11,02,7.50
2015,04,06,11,03,7.50
2015,04,06,11,04,7.60
2015,04,06,11,05,7.70
2015,04,06,11,06,7.70
2015,04,06,11,07,7.80
2015,04,06,11,08,7.90
2015,04,06,11,09,8.00
2015,04,06,11,10,8.10
2015,04,06,11,11,8.10
2015,04,06,11,12,8.10
2015,04,06,11,13,8.20
2015,04,06,11,14,8.30
2015,04,06,11,15,8.30
2015,04,06,11,16,8.40
2015,04,06,11,17,8.50
2015,04,06,11,18,8.50
2015,04,06,11,19,8.60
2015,04,06,11,20,8.80
2015,04,06,11,21,8.80
2015,04,06,11,22,8.90
2015,04,06,11,23,9.00
2015,04,06,11,24,9.10
2015,04,06,11,25,9.20
2015,04,06,11,26,9.30
2015,04,06,11,27,9.40
2015,04,06,11,28,9.40
2015,04,06,11,29,9.40
2015,04,06,11,30,9.50
2015,04,06,11,31,9.50
2015,04,06,11,32,9.50
2015,04,06,11,33,9.60
2015,04,06,11,34,9.60
2015,04,06,11,35,9.60
2015,04,06,11,36,9.70
2015,04,06,11,37,9.70
2015,04,06,11,38,9.80
2015,04,06,11,39,9.80
2015,04,06,11,40,9.90
2015,04,06,11,41,9.90
2015,04,06,11,42,10.00
2015,04,06,11,43,10.00
2015,04,06,11,44,10.10
2015,04,06,11,45,10.20
2015,04,06,11,46,10.30
2015,04,06,11,47,10.40
2015,04,06,11,48,10.50
2015,04,06,11,49,10.60
2015,04,06,11,50,10.80
2015,04,06,11,51,10.90
2015,04,06,11,52,11.00
2015,04,06,11,53,11.10
2015,04,06,11,54,11.20
2015,04,06,11,55,11.30
2015,04,06,11,56,11.50
2015,04,06,11,57,11.60
2015,04,06,11,58,11.70
2015,04,06,11,59,11.70
2015,04,06,12,00,11.80
2015,04,06,12,01,11.80
2015,04,06,12,02,11.90
2015,04,06,12,03,11.90
2015,04,06,12,04,11.90
2015,04,06,12,05,11.90
2015,04,06,12,06,11.90
2015,04,06,12,07,11.90
2015,04,06,12,08,11.90
2015,04,06,12,09,11.90
2015,04,06,12,10,11.90
2015,04,06,12,11,12.00
2015,04,06,12,12,12.00
2015,04,06,12,13,12.10
2015,04,06,12,14,12.10
2015,04,06,12,15,12.10
2015,04,06,12,16,12.20
2015,04,06,12,17,12.20
2015,04,06,12,18,12.20
2015,04,06,12,19,12.30
2015,04,06,12,20,12.30
2015,04,06,12,21,12.30
2015,04,06,12,22,12.40
2015,04,06,12,23,12.40
2015,04,06,12,24,12.50
2015,04,06,12,25,12.60
2015,04,06,12,26,12.70
2015,04,06,12,27,12.70
2015,04,06,12,28,12.80
2015,04,06,12,29,12.90
2015,04,06,12,30,12.90
2015,04,06,12,31,12.90
2015,04,06,12,32,12.90
2015,04,06,12,33,12.90
2015,04,06,12,34,12.90
2015,04,06,12,35,12.90
2015,04,06,12,36,12.90
2015,04,06,12,37,12.90
2015,04,06,12,38,13.00
2015,04,06,12,39,13.00
2015,04,06,12,40,13.00
2015,04,06,12,41,13.10
2015,04,06,12,42,13.10
2015,04,06,12,43,13.00
2015,04,06,12,44,13.00
2015,04,06,12,45,13.00
2015,04,06,12,46,13.00
2015,04,06,12,47,13.00
2015,04,06,12,48,13.10
2015,04,06,12,49,13.10
2015,04,06,12,50,13.10
2015,04,06,12,51,13.10
2015,04,06,12,52,13.20
2015,04,06,12,53,13.20
2015,04,06,12,54,13.30
2015,04,06,12,55,13.30
2015,04,06,12,56,13.40
2015,04,06,12,57,13.50
2015,04,06,12,58,13.50
2015,04,06,12,59,13.50
2015,04,06,13,00,13.60
2015,04,06,13,01,13.60
2015,04,06,13,02,13.60
2015,04,06,13,03,13.60
2015,04,06,13,04,13.60
2015,04,06,13,05,13.70
2015,04,06,13,06,13.70
2015,04,06,13,07,13.70
2015,04,06,13,08,13.80
2015,04,06,13,09,13.80
2015,04,06,13,10,13.90
2015,04,06,13,11,13.90
2015,04,06,13,12,14.00
2015,04,06,13,13,14.00
2015,04,06,13,14,14.10
2015,04,06,13,15,14.10
2015,04,06,13,16,14.00
2015,04,06,13,17,14.00
2015,04,06,13,18,14.00
2015,04,06,13,19,14.00
2015,04,06,13,20,14.10
2015,04,06,13,21,14.10
2015,04,06,13,22,14.10
2015,04,06,13,23,14.20
2015,04,06,13,24,14.20
2015,04,06,13,25,14.20
2015,04,06,13,26,14.20
2015,04,06,13,27,14.20
2015,04,06,13,28,14.20
2015,04,06,13,29,14.20
2015,04,06,13,30,14.20
2015,04,06,13,31,14.20
2015,04,06,13,32,14.20
2015,04,06,13,33,14.20
2015,04,06,13,34,14.10
2015,04,06,13,35,14.10
2015,04,06,13,36,14.00
2015,04,06,13,37,14.00
2015,04,06,13,38,14.00
2015,04,06,13,39,14.10
2015,04,06,13,40,14.10
2015,04,06,13,41,14.10
2015,04,06,13,42,14.20
2015,04,06,13,43,14.30
2015,04,06,13,44,14.30
2015,04,06,13,45,14.40
2015,04,06,13,46,14.40
2015,04,06,13,47,14.40
2015,04,06,13,48,14.30
2015,04,06,13,49,14.30
2015,04,06,13,50,14.20
2015,04,06,13,51,14.20
2015,04,06,13,52,14.10
2015,04,06,13,53,14.10
2015,04,06,13,54,14.10
2015,04,06,13,55,14.10
2015,04,06,13,56,14.10
2015,04,06,13,57,14.20
2015,04,06,13,58,14.20
2015,04,06,13,59,14.20
2015,04,06,14,00,14.20
2015,04,06,14,01,14.30
2015,04,06,14,02,14.30
2015,04,06,14,03,14.30
2015,04,06,14,04,14.40
2015,04,06,14,05,14.30
2015,04,06,14,06,14.30
2015,04,06,14,07,14.30
2015,04,06,14,08,14.40
2015,04,06,14,09,14.40
2015,04,06,14,10,14.40
2015,04,06,14,11,14.40
2015,04,06,14,12,14.50
2015,04,06,14,13,14.50
2015,04,06,14,14,14.50
2015,04,06,14,15,14.60
2015,04,06,14,16,14.60
2015,04,06,14,17,14.60
2015,04,06,14,18,14.60
2015,04,06,14,19,14.60
2015,04,06,14,20,14.50
2015,04,06,14,21,14.40
2015,04,06,14,22,14.30
2015,04,06,14,23,14.20
2015,04,06,14,24,14.10
2015,04,06,14,25,14.00
2015,04,06,14,26,13.90
2015,04,06,14,27,13.80
2015,04,06,14,28,13.70
2015,04,06,14,29,13.70
2015,04,06,14,30,13.60
2015,04,06,14,31,13.60
2015,04,06,14,32,13.60
2015,04,06,14,33,13.60
2015,04,06,14,34,13.60
2015,04,06,14,35,13.60
2015,04,06,14,36,13.60
2015,04,06,14,37,13.60
2015,04,06,14,38,13.60
2015,04,06,14,39,13.70
2015,04,06,14,40,13.70
2015,04,06,14,41,13.80
2015,04,06,14,42,13.90
2015,04,06,14,43,14.00
2015,04,06,14,44,14.10
2015,04,06,14,45,14.20
2015,04,06,14,46,14.20
2015,04,06,14,47,14.20
2015,04,06,14,48,14.20
2015,04,06,14,49,14.20
2015,04,06,14,50,14.20
2015,04,06,14,51,14.20
2015,04,06,14,52,14.20
2015,04,06,14,53,14.20
2015,04,06,14,54,14.10
2015,04,06,14,55,14.00
2015,04,06,14,56,14.00
2015,04,06,14,57,13.90
2015,04,06,14,58,13.80
2015,04,06,14,59,13.80
2015,04,06,15,00,13.80
2015,04,06,15,01,13.80
2015,04,06,15,02,13.80
2015,04,06,15,03,13.80
2015,04,06,15,04,13.90
2015,04,06,15,05,13.90
2015,04,06,15,06,13.90
2015,04,06,15,07,13.90
2015,04,06,15,08,13.90
2015,04,06,15,09,13.90
2015,04,06,15,10,13.80
2015,04,06,15,11,13.80
2015,04,06,15,12,13.70
2015,04,06,15,13,13.60
2015,04,06,15,14,13.50
2015,04,06,15,15,13.50
2015,04,06,15,16,13.40
2015,04,06,15,17,13.40
2015,04,06,15,18,13.40
2015,04,06,15,19,13.40
2015,04,06,15,20,13.50
2015,04,06,15,21,13.60
2015,04,06,15,22,13.60
2015,04,06,15,23,13.60
2015,04,06,15,24,13.60
2015,04,06,15,25,13.70
2015,04,06,15,26,13.70
2015,04,06,15,27,13.70
2015,04,06,15,28,13.80
2015,04,06,15,29,13.70
2015,04,06,15,30,13.70
2015,04,06,15,31,13.70
2015,04,06,15,32,13.60
2015,04,06,15,33,13.60
2015,04,06,15,34,13.60
2015,04,06,15,35,13.50
2015,04,06,15,36,13.40
2015,04,06,15,37,13.40
2015,04,06,15,38,13.30
2015,04,06,15,39,13.30
2015,04,06,15,40,13.30
2015,04,06,15,41,13.30
2015,04,06,15,42,13.30
2015,04,06,15,43,13.30
2015,04,06,15,44,13.30
2015,04,06,15,45,13.30
2015,04,06,15,46,13.20
2015,04,06,15,47,13.20
2015,04,06,15,48,13.20
2015,04,06,15,49,13.20
2015,04,06,15,50,13.20
2015,04,06,15,51,13.20
2015,04,06,15,52,13.20
2015,04,06,15,53,13.20
2015,04,06,15,54,13.20
2015,04,06,15,55,13.20
2015,04,06,15,56,13.20
2015,04,06,15,57,13.30
2015,04,06,15,58,13.30
2015,04,06,15,59,13.30
2015,04,06,16,00,13.30
2015,04,06,16,01,13.40
2015,04,06,16,02,13.50
2015,04,06,16,03,13.50
2015,04,06,16,04,13.60
2015,04,06,16,05,13.60
2015,04,06,16,06,13.60
2015,04,06,16,07,13.60
2015,04,06,16,08,13.70
2015,04,06,16,09,13.70
2015,04,06,16,10,13.70
2015,04,06,16,11,13.80
2015,04,06,16,12,13.80
2015,04,06,16,13,13.70
2015,04,06,16,14,13.70
2015,04,06,16,15,13.70
2015,04,06,16,16,13.70
2015,04,06,16,17,13.70
2015,04,06,16,18,13.70
2015,04,06,16,19,13.70
2015,04,06,16,20,13.70
2015,04,06,16,21,13.70
2015,04,06,16,22,13.70
2015,04,06,16,23,13.70
2015,04,06,16,24,13.70
2015,04,06,16,25,13.80
2015,04,06,16,26,13.80
2015,04,06,16,27,13.90
2015,04,06,16,28,14.00
2015,04,06,16,29,14.10
2015,04,06,16,30,14.20
2015,04,06,16,31,14.20
2015,04,06,16,32,14.20
2015,04,06,16,33,14.30
2015,04,06,16,34,14.40
2015,04,06,16,35,14.50
2015,04,06,16,36,14.50
2015,04,06,16,37,14.50
2015,04,06,16,38,14.50
2015,04,06,16,39,14.50
2015,04,06,16,40,14.40
2015,04,06,16,41,14.40
2015,04,06,16,42,14.30
2015,04,06,16,43,14.30
2015,04,06,16,44,14.30
2015,04,06,16,45,14.30
2015,04,06,16,46,14.40
2015,04,06,16,47,14.40
2015,04,06,16,48,14.40
2015,04,06,16,49,14.40
2015,04,06,16,50,14.40
2015,04,06,16,51,14.40
2015,04,06,16,52,14.40
2015,04,06,16,53,14.30
2015,04,06,16,54,14.30
2015,04,06,16,55,14.30
2015,04,06,16,56,14.30
2015,04,06,16,57,14.20
2015,04,06,16,58,14.20
2015,04,06,16,59,14.20
2015,04,06,17,00,14.20
2015,04,06,17,01,14.10
2015,04,06,17,02,14.10
2015,04,06,17,03,14.00
2015,04,06,17,04,14.00
2015,04,06,17,05,13.90
2015,04,06,17,06,13.90
2015,04,06,17,07,13.90
2015,04,06,17,08,13.90
2015,04,06,17,09,13.90
2015,04,06,17,10,13.90
2015,04,06,17,11,13.90
2015,04,06,17,12,13.90
2015,04,06,17,13,13.90
2015,04,06,17,14,13.90
2015,04,06,17,15,13.90
2015,04,06,17,16,13.80
2015,04,06,17,17,13.70
2015,04,06,17,18,13.40
2015,04,06,17,19,13.10
2015,04,06,17,20,12.80
2015,04,06,17,21,12.50
2015,04,06,17,22,12.20
2015,04,06,17,23,12.00
2015,04,06,17,24,11.70
2015,04,06,17,25,11.40
2015,04,06,17,26,11.10
2015,04,06,17,27,10.80
2015,04,06,17,28,10.60
2015,04,06,17,29,10.50
2015,04,06,17,30,10.30
2015,04,06,17,31,10.20
2015,04,06,17,32,10.10
2015,04,06,17,33,9.90
2015,04,06,17,34,9.80
2015,04,06,17,35,9.70
2015,04,06,17,36,9.60
2015,04,06,17,37,9.50
2015,04,06,17,38,9.40
2015,04,06,17,39,9.30
2015,04,06,17,40,9.20
2015,04,06,17,41,9.10
2015,04,06,17,42,9.10
2015,04,06,17,43,9.10
2015,04,06,17,44,9.10
2015,04,06,17,45,9.10
2015,04,06,17,46,9.10
2015,04,06,17,47,9.10
2015,04,06,17,48,9.00
2015,04,06,17,49,8.90
2015,04,06,17,50,8.90